METEOR 1-17 DEB

Satellite information

Favourite Embed

Satellite Type and Status

DEBRISIN ORBIT

Key statistics

Satellite METEOR 1-17 DEB at a glance.

Uptime

18764

Days in orbit

Revolutions

≈ 14.2

Per day

Orbit

LEO

Low Earth Orbit

Inclination

81.2

Latest

Satellite identification and parameters

Extended collection of information and parameters for METEOR 1-17 DEB.

Object identification

Identified? True

Debris? True

Object name: METEOR 1-17 DEB

International designator: 1974-025E

Object number (NORAD): 57539

Object ID (CCSDS): 57539

Country: COMMONWEALTH OF INDEPENDENT STATES (CIS)

Current information (Y/N): Y

RCS size: SMALL

Orbital parameters

Period: 101.615 minutes

Inclination: 81.2096 deg

SMA: 7213.269 km

Apoapsis: 841.863 km

Periapsis: 828.405 km

RAAN: 209.484 deg

Eccentricy: 0.00093284

Argument of periapsis: 49.1622 deg

Mean anomaly: 311.036 deg

Mean motion: 14.17113231 rev/day

Mean motion (dot): 0.00005595 rev/day2

B* drag term: 0.002771304 1/REarth

Two-line elements (TLE)

Creation date: Sept. 6, 2025, 2:09 a.m.

Reference frame: TEME

Reference center: EARTH

Epoch: Sept. 5, 2025, 8:54 p.m. UTC

TLE line 0: 0 METEOR 1-17 DEB

TLE line 1: 1 57539U 74025E 25248.87087554 .00005595 00000-0 27713-2 0 9998

TLE line 2: 2 57539 81.2096 209.4840 0009328 49.1622 311.0360 14.17113231109862

Live tracking on map

Real-time ground track for satellite METEOR 1-17 DEB.

In-orbit conjunctions

A list of the most updated potential collisions computed for object METEOR 1-17 DEB.

Target Orbit TCA Probability of collision Miss distance Type
CZ-6A DEB SSO 2024-11-11 06:45:26 0.0006327079 476.0 (m) DEBRIS
NOAA 14 SSO 2024-11-10 09:31:45 0.0001729734 394.0 (m) PAYLOAD
SCOUT A R/B SSO 2024-10-29 05:08:47 0.0001191689 356.0 (m) ROCKET BODY
CZ-6A DEB LEO 2024-10-28 12:48:20 0.0003915679 293.0 (m) DEBRIS

Associated space launch

The Meteor-1 series was the first series of Soviet meteorological satellites.

METEOR 1-17 DEB was lifted into orbit during the mission ‘Vostok 8A92M | Meteor-1 17 (22L)’, on board a Vostok 8A92M space rocket.

The launch took place on April 24, 1974, 11:50 a.m. from 43/4 (43R).

For more information about the launch, click the button.

Launch to space Vostok 8A92M | Meteor-1 17 (22L)
Vostok 8A92M | Meteor-1 17 (22L)

Agency: N/A

Status: Launch Successful

Launch date: April 24, 1974, 11:50 a.m. UTC

Rocket: Vostok 8A92M

Launch pad: 43/4 (43R)

Location: Plesetsk Cosmodrome, Russian Federation

...

Latest news about this satellite

There are no fresh news available about this satellite. Check back as we update our databases every day.


Newsletter sign-up

Weekly statistics, charts and insights to help you stay on top of the space industry.